YAOGAN 25C

Satellite information

Favourite Embed

Satellite Type and Status

PAYLOADIN ORBIT

Key statistics

Satellite YAOGAN 25C at a glance.

Uptime

3926

Days in orbit

Revolutions

≈ 13.5

Per day

Orbit

LEO

Low Earth Orbit

Inclination

63.4

Latest

Satellite identification and parameters

Extended collection of information and parameters for YAOGAN 25C.

Object identification

Identified? True

Debris? False

Object name: YAOGAN 25C

International designator: 2014-080C

Object number (NORAD): 40340

Object ID (CCSDS): 40340

Country: PEOPLES REPUBLIC OF CHINA (PRC)

Current information (Y/N): Y

RCS size: LARGE

Orbital parameters

Period: 107.032 minutes

Inclination: 63.3901 deg

SMA: 7467.415 km

Apoapsis: 1344.197 km

Periapsis: 834.363 km

RAAN: 316.6542 deg

Eccentricy: 0.03413725

Argument of periapsis: 8.3045 deg

Mean anomaly: 352.3436 deg

Mean motion: 13.45387206 rev/day

Mean motion (dot): -0.00000038 rev/day2

B* drag term: 0.000062454146 1/REarth

Two-line elements (TLE)

Creation date: Sept. 8, 2025, 6:18 p.m.

Reference frame: TEME

Reference center: EARTH

Epoch: Sept. 8, 2025, 1:43 p.m. UTC

TLE line 0: 0 YAOGAN 25C

TLE line 1: 1 40340U 14080C 25251.57168132 -.00000038 00000-0 62454-4 0 9999

TLE line 2: 2 40340 63.3901 316.6542 0341372 8.3045 352.3436 13.45387206527865

Live tracking on map

Real-time ground track for satellite YAOGAN 25C.

In-orbit conjunctions

There are no conjunctions computed for YAOGAN 25C, at the moment. Check back to stay up to date, as we update our databases every day.

Go to all conjunctions

Associated space launch

YAOGAN 25C was lifted into orbit during the mission ‘Long March 4C | Yaogan 25A, Yaogan 25B, Yaogan 25C’, on board a Long March 4C space rocket.

The launch took place on Dec. 10, 2014, 7:33 p.m. from Launch Area 4 (SLS-2 / 603).

For more information about the launch, click the button.

Launch to space Long March 4C | Yaogan 25A, Yaogan 25B, Yaogan 25C
Long March 4C | Yaogan 25A, Yaogan 25B, Yaogan 25C

Agency: N/A

Status: Launch Successful

Launch date: Dec. 10, 2014, 7:33 p.m. UTC

Rocket: Long March 4C

Launch pad: Launch Area 4 (SLS-2 / 603)

Location: Jiuquan Satellite Launch Center, People's Republic of China

...

Latest news about this satellite

There are no fresh news available about this satellite. Check back as we update our databases every day.


Newsletter sign-up

Weekly statistics, charts and insights to help you stay on top of the space industry.